Flag for Canada Weather past 2 weeks in North Bay, Ontario, Canada

59 °F

Mostly cloudy.

Feels Like: 57 °F
Forecast: 48 / 61 °F
Wind: 12 mph from South

Location: North Bay

Current Time: Oct 13, 2015 at 4:15:40 AM

Latest Report: Oct 13, 2015 at 3:00 AM

Visibility: 9 mi

Pressure: 29.31 "Hg

Humidity: 77%

Dew point: 52 °F

Location of North BayLocation

Historic Weather in North Bay — Graph


North Bay temperature yesterday

Maximum temperature yesterday: 86 °F (at 1:00 PM)
Minimum temperature yesterday: 54 °F (at 12:00 AM)
Average temperature yesterday: 64 °F

Past Weeks' High & Low Weather Summary

High86 °F (Oct 12, 1:00 PM)100% (Sep 28, 7:46 AM)30.65 "Hg (Sep 28, 7:46 AM)
Low27 °F (Oct 10, 7:00 AM)35% (Oct 2, 1:00 PM)29.31 "Hg (Oct 13, 3:00 AM)
Average49 °F80%30.13 "Hg
* Reported Sep 28 3:00 AM — Oct 13 3:00 AM, North Bay, Weather by CustomWeather, © 2015

Note: Actual official high and low records may vary slightly from our data, if they occured in-between our weather recording intervals... More about our weather records


North Bay weather history for previous 24 hours

Time TempWeatherWind HumidityBarometerVisibility
3:00 AM
Tue, Oct 13
59 °FMostly cloudy.12 mph77%29.31 "Hg9 mi
2:00 AM61 °FMostly cloudy.9 mph72%29.33 "Hg9 mi
1:00 AM61 °FOvercast.14 mph68%29.35 "Hg9 mi
12:00 AM63 °FMostly cloudy.10 mph68%29.36 "Hg9 mi
11:00 PM
Mon, Oct 12
75 °FOvercast.10 mph65%29.38 "Hg9 mi
10:00 PM64 °FOvercast.9 mph64%29.40 "Hg15 mi
9:00 PM64 °FOvercast.10 mph64%29.43 "Hg15 mi
8:00 PM66 °FOvercast.13 mph60%29.44 "Hg15 mi
7:00 PM66 °FOvercast.15 mph56%29.42 "Hg15 mi
6:00 PM70 °FMostly cloudy.13 mph53%29.42 "Hg30 mi
5:00 PM70 °FMostly cloudy.13 mph53%29.43 "Hg30 mi
4:00 PM72 °FMostly cloudy.15 mph47%29.43 "Hg30 mi
3:00 PM73 °FOvercast.17 mph44%29.44 "Hg30 mi
2:00 PM73 °FPartly sunny.14 mph44%29.44 "Hg30 mi
1:00 PM86 °FPartly sunny.17 mph52%29.48 "Hg30 mi
12:00 PM68 °FPartly sunny.17 mph56%29.51 "Hg30 mi
11:00 AM64 °FPartly sunny.16 mph64%29.54 "Hg30 mi
10:00 AM70 °FPartly sunny.14 mph73%29.55 "Hg30 mi
9:00 AM59 °FPartly sunny.8 mph77%29.57 "Hg30 mi
8:00 AM54 °FPassing clouds.6 mph94%29.58 "Hg30 mi
7:00 AM55 °FClear.10 mph88%29.58 "Hg15 mi
6:00 AM55 °FClear.8 mph94%29.57 "Hg9 mi
5:00 AM55 °FClear.9 mph94%29.57 "Hg9 mi
4:00 AM55 °FClear.6 mph94%29.57 "Hg9 mi
Weather by CustomWeather, © 2015

See weather overviewHow to use our weather pages